FW7922 Weather Reports


time (UTC)temp
C
wind
direction
speed
KPH
gust
KPH
rain 1hr
cm
rain 24hr
cm
rain mn
cm
humidity
%
barometer
mb
20260504214021 23 351 1.6 8.0 0.00 0.00 0.00 33 1005.5
20260504213038 22 335 1.6 6.4 0.00 0.00 0.00 34 1005.6
20260504212038 22 342 3.2 11.3 0.00 0.00 0.00 33 1005.6
20260504211019 22 338 1.6 6.4 0.00 0.00 0.00 34 1005.5
20260504210019 22 101 1.6 6.4 0.00 0.00 0.00 34 1005.5
20260504205019 22 341 3.2 14.5 0.00 0.00 0.00 33 1005.5
20260504204019 22 121 1.6 8.0 0.00 0.00 0.00 34 1005.6
20260504203019 22 333 1.6 9.7 0.00 0.00 0.00 33 1005.5
20260504202019 22 331 1.6 8.0 0.00 0.00 0.00 33 1005.5
20260504201041 22 342 1.6 8.0 0.00 0.00 0.00 34 1005.5
20260504200018 21 354 1.6 6.4 0.00 0.00 0.00 34 1005.6
20260504195018 21 342 1.6 6.4 0.00 0.00 0.00 35 1005.7
20260504194018 22 335 1.6 9.7 0.00 0.00 0.00 34 1005.6
20260504193100 22 341 3.2 8.0 0.00 0.00 0.00 33 1005.6
20260504192018 23 337 3.2 9.7 0.00 0.00 0.00 32 1005.7
20260504191018 23 346 3.2 11.3 0.00 0.00 0.00 32 1005.7
20260504190017 22 342 3.2 8.0 0.00 0.00 0.00 32 1005.8
20260504185017 22 229 1.6 4.8 0.00 0.00 0.00 32 1006.0
20260504184017 22 341 3.2 9.7 0.00 0.00 0.00 32 1006.1
20260504183038 22 344 3.2 9.7 0.00 0.00 0.00 32 1006.3
20260504182019 22 330 1.6 8.0 0.00 0.00 0.00 31 1006.3
20260504181019 22 341 3.2 11.3 0.00 0.00 0.00 32 1006.3
20260504180019 21 340 3.2 8.0 0.00 0.00 0.00 32 1006.3
20260504175019 21 341 4.8 14.5 0.00 0.00 0.00 32 1006.2
20260504174019 21 335 3.2 12.9 0.00 0.00 0.00 33 1006.4
20260504173019 21 345 4.8 11.3 0.00 0.00 0.00 34 1006.6
20260504172019 20 336 4.8 16.1 0.00 0.00 0.00 34 1006.6
20260504171019 20 347 3.2 12.9 0.00 0.00 0.00 34 1006.7
20260504151019 17 358 1.6 6.4 0.00 0.00 0.00 40 1008.0
20260504141040 16 3 1.6 11.3 0.00 0.00 0.00 42 1008.3
20260504081120 6 0.0 0.0 0.00 0.00 0.00 68 1009.6
20260504050018 4 0.0 0.0 0.00 0.00 0.00 69 1009.4
20260504045020 4 0.0 0.0 0.00 0.00 0.00 68 1009.5
20260504044020 4 0.0 0.0 0.00 0.00 0.00 69 1009.6
20260504043100 3 0.0 0.0 0.00 0.00 0.00 69 1009.6
20260504042040 3 0.0 0.0 0.00 0.00 0.00 71 1009.5
20260504041017 3 0.0 0.0 0.00 0.00 0.00 72 1009.4
20260504040021 3 0.0 0.0 0.00 0.00 0.00 73 1009.2
20260504035018 3 0.0 0.0 0.00 0.00 0.00 74 1009.2
20260504034021 3 0.0 0.0 0.00 0.00 0.00 75 1009.1
20260504033018 3 0.0 0.0 0.00 0.00 0.00 76 1009.1
20260504032020 3 0.0 0.0 0.00 0.00 0.00 75 1009.1
20260504031018 3 0.0 0.0 0.00 0.00 0.00 74 1009.1
20260504030038 3 0.0 0.0 0.00 0.00 0.00 72 1009.0
20260504025019 4 327 0.0 1.6 0.00 0.00 0.00 71 1008.9
20260504024019 4 0.0 0.0 0.00 0.00 0.00 69 1008.8
20260504023019 5 0.0 0.0 0.00 0.00 0.00 67 1008.8
20260504022019 5 0.0 0.0 0.00 0.00 0.00 66 1008.7
20260504021019 5 0.0 0.0 0.00 0.00 0.00 64 1008.7
20260504020019 5 0.0 0.0 0.00 0.00 0.00 63 1008.6
20260504015041 5 0.0 0.0 0.00 0.00 0.00 62 1008.5
20260504014017 5 0.0 0.0 0.00 0.00 0.00 62 1008.5
20260504013020 5 0.0 0.0 0.00 0.00 0.00 61 1008.4
20260504012020 6 0.0 0.0 0.00 0.00 0.00 62 1008.3
20260504011020 6 0.0 0.0 0.00 0.00 0.00 60 1008.3
20260504010018 6 0.0 0.0 0.00 0.00 0.00 59 1008.1
20260504005058 6 0.0 0.0 0.00 0.00 0.00 58 1007.9
20260504004018 6 0.0 0.0 0.00 0.00 0.00 58 1007.8
20260504003018 7 0.0 0.0 0.00 0.00 0.00 55 1007.8
20260504002021 7 0.0 0.0 0.00 0.00 0.00 54 1007.6
20260504001018 8 145 0.0 3.2 0.00 0.00 0.00 54 1007.4
20260504000019 8 0.0 0.0 0.00 0.00 0.00 51 1007.4
20260503235019 9 0.0 0.0 0.00 0.00 0.00 48 1007.3
20260503234020 10 0.0 0.0 0.00 0.00 0.00 44 1007.2
20260503233019 10 118 0.0 4.8 0.00 0.00 0.00 45 1007.2
20260503232020 10 353 0.0 3.2 0.00 0.00 0.00 43 1007.1
20260503231040 10 353 1.6 8.0 0.00 0.00 0.00 42 1006.9
20260503230020 10 8 0.0 3.2 0.00 0.00 0.00 43 1006.8
20260503225020 11 358 1.6 4.8 0.00 0.00 0.00 42 1006.7
20260503224042 11 358 1.6 6.4 0.00 0.00 0.00 42 1006.6
20260503223017 11 8 1.6 4.8 0.00 0.00 0.00 42 1006.6
20260503222017 11 6 3.2 6.4 0.00 0.00 0.00 42 1006.6
20260503221017 10 7 1.6 6.4 0.00 0.00 0.00 42 1006.6
20260503220020 11 351 6.4 12.9 0.00 0.00 0.00 41 1006.5
20260503215021 12 6 3.2 8.0 0.00 0.00 0.00 40 1006.3